When you browse on this site, cookies collect data to enhance your experience and personalize the content and advertising you see.
Visit our Privacy Policy to learn more. By continuing to use the site, you agree to this use of cookies and data.
  • In Germany
  • List of Countries
  • For 7 days
  • Water Temperature
  • Satellite Maps
  • Weather Map
  • Weather Widgets
  • user-avatar
    Login

    Hourly Weather Serowe

    Today, 22 January, Tuesday

    Time Temperature Precipitation Wind Pressure Humidity
    00:00 +23°C° 0 mm 2 mps 668 mmHg 47%
    01:00 +21°C° 0 mm 2 mps 667 mmHg 49%
    02:00 +22°C° 0 mm 1 mps 667 mmHg 48%
    03:00 +20°C° 0 mm 2 mps 667 mmHg 48%
    04:00 +19°C° 0 mm 2 mps 667 mmHg 49%
    05:00 +19°C° 0 mm 2 mps 667 mmHg 49%
    06:00 +20°C° 0 mm 2 mps 667 mmHg 49%
    07:00 +23°C° 0 mm 2 mps 668 mmHg 49%
    08:00 +24°C° 0 mm 3 mps 668 mmHg 50%
    09:00 +26°C° 0 mm 3 mps 669 mmHg 41%
    10:00 +29°C° 0 mm 4 mps 669 mmHg 32%
    11:00 +32°C° 0 mm 4 mps 669 mmHg 23%
    12:00 +33°C° 0 mm 4 mps 669 mmHg 20%
    13:00 +34°C° 0 mm 5 mps 668 mmHg 18%
    14:00 +35°C° 0 mm 5 mps 668 mmHg 15%
    15:00 +35°C° 0 mm 5 mps 667 mmHg 15%
    16:00 +35°C° 0 mm 5 mps 667 mmHg 16%
    17:00 +35°C° 0 mm 4 mps 666 mmHg 16%
    18:00 +32°C° 0 mm 4 mps 666 mmHg 19%
    19:00 +29°C° 0 mm 3 mps 665 mmHg 22%
    20:00 +27°C° 0 mm 2 mps 665 mmHg 25%
    21:00 +26°C° 0 mm 2 mps 665 mmHg 32%
    22:00 +25°C° 0 mm 3 mps 665 mmHg 39%
    23:00 +24°C° 0 mm 3 mps 665 mmHg 45%

    Tomorrow, 23 January, Wednesday

    Time Temperature Precipitation Wind Pressure Humidity
    00:00 +22°C° 0 mm 3 mps 665 mmHg 52%
    01:00 +21°C° 0 mm 2 mps 665 mmHg 59%
    02:00 +21°C° 0 mm 2 mps 664 mmHg 66%
    03:00 +20°C° 0 mm 2 mps 664 mmHg 65%
    04:00 +20°C° 0 mm 2 mps 664 mmHg 64%
    05:00 +21°C° 0 mm 1 mps 665 mmHg 64%
    06:00 +23°C° 0 mm 2 mps 665 mmHg 56%
    07:00 +25°C° 0 mm 2 mps 666 mmHg 48%
    08:00 +27°C° 0 mm 3 mps 667 mmHg 40%
    09:00 +29°C° 0 mm 2 mps 667 mmHg 34%
    10:00 +31°C° 0 mm 2 mps 667 mmHg 28%
    11:00 +35°C° 0 mm 2 mps 668 mmHg 22%
    12:00 +36°C° 0 mm 2 mps 667 mmHg 20%
    13:00 +37°C° 0 mm 2 mps 667 mmHg 18%
    14:00 +38°C° 0 mm 2 mps 667 mmHg 16%
    15:00 +38°C° 0 mm 2 mps 666 mmHg 16%
    16:00 +38°C° 0 mm 3 mps 665 mmHg 15%
    17:00 +38°C° 0 mm 3 mps 665 mmHg 15%
    18:00 +36°C° 0 mm 3 mps 664 mmHg 18%
    19:00 +33°C° 0 mm 3 mps 664 mmHg 21%
    20:00 +30°C° 0 mm 3 mps 663 mmHg 25%
    21:00 +29°C° 0 mm 3 mps 664 mmHg 28%
    22:00 +28°C° 0 mm 3 mps 664 mmHg 32%
    23:00 +27°C° 0 mm 3 mps 664 mmHg 36%

    Day after tomorrow, 24 January, Thursday

    Time Temperature Precipitation Wind Pressure Humidity
    00:00 +27°C° 0 mm 3 mps 664 mmHg 38%
    01:00 +26°C° 0 mm 2 mps 663 mmHg 40%
    02:00 +25°C° 0 mm 2 mps 663 mmHg 42%
    03:00 +25°C° 0 mm 2 mps 663 mmHg 43%
    04:00 +24°C° 0 mm 2 mps 663 mmHg 44%
    05:00 +24°C° 0 mm 2 mps 663 mmHg 45%
    06:00 +25°C° 0 mm 2 mps 664 mmHg 42%
    07:00 +27°C° 0 mm 2 mps 665 mmHg 39%
    08:00 +28°C° 0 mm 3 mps 666 mmHg 36%
    09:00 +30°C° 0 mm 3 mps 667 mmHg 32%
    10:00 +33°C° 0 mm 3 mps 667 mmHg 29%
    11:00 +35°C° 0 mm 3 mps 668 mmHg 26%
    12:00 +36°C° 0 mm 3 mps 667 mmHg 24%
    13:00 +37°C° 0 mm 3 mps 667 mmHg 22%
    14:00 +38°C° 0 mm 3 mps 666 mmHg 21%
    15:00 +38°C° 0 mm 3 mps 666 mmHg 21%
    16:00 +38°C° 0 mm 3 mps 665 mmHg 21%
    17:00 +38°C° 0 mm 4 mps 665 mmHg 21%
    18:00 +36°C° 0 mm 4 mps 665 mmHg 26%
    19:00 +34°C° 0 mm 5 mps 665 mmHg 31%
    20:00 +30°C° 0 mm 5 mps 665 mmHg 37%
    21:00 +29°C° 0.1 mm 5 mps 665 mmHg 39%
    22:00 +28°C° 0.1 mm 5 mps 666 mmHg 42%
    23:00 +27°C° 0.1 mm 5 mps 666 mmHg 45%

    25 January, Friday

    Time Temperature Precipitation Wind Pressure Humidity
    00:00 +27°C° 0.3 mm 5 mps 666 mmHg 44%
    01:00 +26°C° 0.3 mm 5 mps 665 mmHg 44%
    02:00 +24°C° 0.3 mm 6 mps 665 mmHg 44%
    03:00 +25°C° 0 mm 5 mps 665 mmHg 47%
    04:00 +23°C° 0 mm 4 mps 665 mmHg 49%
    05:00 +22°C° 0 mm 4 mps 665 mmHg 51%
    06:00 +23°C° 0 mm 5 mps 666 mmHg 53%
    07:00 +23°C° 0 mm 5 mps 667 mmHg 55%
    08:00 +23°C° 0 mm 6 mps 667 mmHg 57%
    09:00 +24°C° 0 mm 6 mps 668 mmHg 57%
    10:00 +26°C° 0 mm 5 mps 668 mmHg 57%
    11:00 +26°C° 0 mm 4 mps 668 mmHg 57%
    12:00 +29°C° 0 mm 4 mps 668 mmHg 50%
    13:00 +32°C° 0 mm 4 mps 667 mmHg 42%
    14:00 +34°C° 0 mm 4 mps 667 mmHg 35%
    15:00 +34°C° 0 mm 3 mps 667 mmHg 33%
    16:00 +35°C° 0 mm 3 mps 666 mmHg 32%
    17:00 +35°C° 0 mm 2 mps 666 mmHg 30%
    18:00 +33°C° 0 mm 3 mps 666 mmHg 35%
    19:00 +30°C° 0 mm 3 mps 666 mmHg 40%
    20:00 +28°C° 0 mm 3 mps 665 mmHg 45%
    21:00 +28°C° 0 mm 4 mps 666 mmHg 45%
    22:00 +27°C° 0 mm 4 mps 666 mmHg 45%
    23:00 +26°C° 0 mm 5 mps 667 mmHg 45%

    26 January, Saturday

    Time Temperature Precipitation Wind Pressure Humidity
    00:00 +25°C° 0.2 mm 4 mps 666 mmHg 49%
    01:00 +23°C° 0.2 mm 4 mps 666 mmHg 53%
    02:00 +23°C° 0.2 mm 4 mps 666 mmHg 57%
    03:00 +23°C° 0 mm 5 mps 666 mmHg 57%
    04:00 +23°C° 0 mm 6 mps 666 mmHg 56%
    05:00 +23°C° 0 mm 8 mps 666 mmHg 56%
    06:00 +24°C° 0 mm 7 mps 667 mmHg 55%
    07:00 +25°C° 0 mm 5 mps 667 mmHg 54%
    08:00 +25°C° 0 mm 4 mps 668 mmHg 53%
    09:00 +28°C° 0 mm 5 mps 668 mmHg 47%
    10:00 +30°C° 0 mm 5 mps 669 mmHg 40%
    11:00 +33°C° 0 mm 5 mps 669 mmHg 33%
    12:00 +35°C° 0 mm 4 mps 668 mmHg 30%
    13:00 +36°C° 0 mm 4 mps 668 mmHg 27%
    14:00 +38°C° 0 mm 3 mps 667 mmHg 24%
    15:00 +37°C° 0 mm 3 mps 667 mmHg 24%
    16:00 +37°C° 0 mm 2 mps 666 mmHg 24%
    17:00 +37°C° 0 mm 2 mps 666 mmHg 24%
    18:00 +35°C° 0.2 mm 2 mps 665 mmHg 31%
    19:00 +33°C° 0.2 mm 3 mps 665 mmHg 37%
    20:00 +30°C° 0.2 mm 3 mps 665 mmHg 43%
    21:00 +28°C° 0.6 mm 3 mps 666 mmHg 50%
    22:00 +27°C° 0.6 mm 3 mps 666 mmHg 58%
    23:00 +25°C° 0.6 mm 3 mps 667 mmHg 65%

    27 January, Sunday

    Time Temperature Precipitation Wind Pressure Humidity
    00:00 +23°C° 1.9 mm 4 mps 667 mmHg 70%
    01:00 +23°C° 1.9 mm 5 mps 666 mmHg 75%
    02:00 +22°C° 1.9 mm 6 mps 666 mmHg 80%
    03:00 +21°C° 0.2 mm 7 mps 666 mmHg 81%
    04:00 +21°C° 0.2 mm 7 mps 666 mmHg 83%
    05:00 +21°C° 0.2 mm 7 mps 666 mmHg 84%
    06:00 +21°C° 0 mm 7 mps 667 mmHg 83%
    07:00 +21°C° 0 mm 7 mps 667 mmHg 82%
    08:00 +21°C° 0 mm 8 mps 668 mmHg 81%
    09:00 +23°C° 0 mm 7 mps 668 mmHg 74%
    10:00 +26°C° 0 mm 7 mps 668 mmHg 66%
    11:00 +27°C° 0 mm 7 mps 668 mmHg 59%
    12:00 +29°C° 0 mm 6 mps 668 mmHg 52%
    13:00 +32°C° 0 mm 5 mps 668 mmHg 46%
    14:00 +34°C° 0 mm 5 mps 668 mmHg 39%
    15:00 +34°C° 0 mm 5 mps 667 mmHg 40%
    16:00 +33°C° 0 mm 4 mps 667 mmHg 41%
    17:00 +32°C° 0 mm 4 mps 666 mmHg 43%
    18:00 +29°C° 0.1 mm 5 mps 666 mmHg 52%
    19:00 +27°C° 0.1 mm 6 mps 665 mmHg 61%
    20:00 +24°C° 0.1 mm 6 mps 665 mmHg 70%
    21:00 +23°C° 0 mm 6 mps 666 mmHg 72%
    22:00 +22°C° 0 mm 6 mps 667 mmHg 73%
    23:00 +22°C° 0 mm 6 mps 668 mmHg 74%
    Show more